Tracking 19562 objects as of 22-Mar-2019
HD Live streaming from Space Station
objects crossing your sky now

GLOBALSTAR M030

Track GLOBALSTAR M030 now!
10-day predictions
GLOBALSTAR M030 is classified as:


NORAD ID: 25854
Int'l Code: 1999-037D
Perigee: 1,892.4 km
Apogee: 1,899.0 km
Inclination: 52.0 °
Period: 124.7 minutes
Semi major axis: 8266 km
RCS: 2.6928 m2 (large)
Launch date: July 10, 1999
Source: Globalstar (GLOB)
Launch site: AIR FORCE EASTERN TEST RANGE (AFETR)
aabbcc
Your satellite tracking list
Your tracking list is empty




NASA's NSSDC Master Catalog

Two Line Element Set (TLE):
1 25854U 99037D   19079.49382342 -.00000054  00000-0  45153-3 0  9994
2 25854  51.9865  93.6249 0004001 265.0576  94.9784 11.55054990886595
Source of the keplerian elements: AFSPC